EW2875 Weather Reports


Display with metric or nautical units.
time (UTC)temp
F
wind
direction
speed
MPH
gust
MPH
rain 1hr
in
rain 24hr
in
rain mn
in
humidity
%
barometer
mb
20260902130003 56 71 4.0 11.0 0.00 0.03 0.03 80 1011.6
20260902124524 57 61 6.0 13.0 0.00 0.03 0.03 80 1011.7
20260902123004 58 40 6.0 11.0 0.00 0.03 0.03 79 1011.6
20260902121503 58 41 7.0 13.0 0.00 0.03 0.03 80 1011.6
20260902120004 59 33 5.0 11.0 0.00 0.04 0.03 80 1011.8
20260902114503 58 32 6.0 11.0 0.00 0.14 0.03 81 1012.0
20260902113003 57 26 4.0 9.0 0.00 0.14 0.03 81 1012.3
20260902111503 57 9 4.0 8.0 0.00 0.14 0.03 83 1012.2
20260902110005 56 8 5.0 9.0 0.00 0.14 0.03 83 1012.3
20260902104503 57 16 4.0 10.0 0.00 0.14 0.03 82 1012.3
20260902103003 56 14 2.0 7.0 0.00 0.14 0.03 82 1012.4
20260902101503 56 316 1.0 7.0 0.00 0.14 0.03 82 1012.6
20260902100003 55 299 2.0 7.0 0.00 0.14 0.03 80 1012.7
20260902094503 55 251 2.0 8.0 0.00 0.14 0.03 82 1012.7
20260902093003 55 249 2.0 7.0 0.00 0.14 0.03 85 1012.7
20260902091503 54 272 1.0 4.0 0.00 0.14 0.03 86 1012.6
20260902090004 54 294 0.0 5.0 0.00 0.14 0.03 85 1012.7
20260902084503 54 255 2.0 8.0 0.00 0.14 0.03 89 1012.8
20260902083003 54 256 3.0 9.0 0.00 0.14 0.03 92 1012.8
20260902081503 52 252 2.0 8.0 0.00 0.14 0.03 93 1012.7
20260902080003 52 264 1.0 7.0 0.00 0.14 0.03 94 1012.7
20260902074503 52 255 2.0 9.0 0.00 0.14 0.03 95 1012.5
20260902073003 51 248 3.0 11.0 0.00 0.14 0.03 95 1012.4
20260902071503 50 241 5.0 9.0 0.00 0.15 0.03 97 1012.4
20260902070004 49 233 4.0 9.0 0.00 0.15 0.03 96 1012.3
20260902064503 49 233 3.0 7.0 0.00 0.15 0.03 97 1012.3
20260902063003 49 233 4.0 9.0 0.00 0.15 0.03 97 1012.5
20260902061503 49 230 4.0 9.0 0.00 0.15 0.03 97 1012.3
20260902060003 48 235 3.0 7.0 0.00 0.15 0.03 97 1012.2
20260902054503 48 245 3.0 7.0 0.00 0.15 0.03 97 1012.1
20260902053024 48 248 2.0 7.0 0.00 0.15 0.03 97 1012.2
20260902051503 48 280 0.0 2.0 0.01 0.15 0.03 97 1012.2
20260902050005 49 267 0.0 2.0 0.01 0.15 0.03 97 1012.2
20260902044503 49 274 0.0 4.0 0.01 0.15 0.03 97 1012.3
20260902043003 49 281 1.0 8.0 0.01 0.15 0.03 97 1012.2
20260902041503 49 284 1.0 9.0 0.00 0.14 0.02 97 1012.1
20260902040003 49 270 1.0 7.0 0.00 0.14 0.02 97 1011.8
20260902034524 49 264 1.0 7.0 0.00 0.14 0.02 97 1011.8
20260902033003 49 269 1.0 8.0 0.00 0.14 0.02 97 1011.7
20260902031503 49 262 1.0 5.0 0.00 0.14 0.02 97 1011.7
20260902030003 48 264 1.0 5.0 0.00 0.14 0.02 97 1011.7
20260902024503 49 264 1.0 4.0 0.00 0.14 0.02 97 1011.7
20260902023003 49 276 1.0 7.0 0.00 0.14 0.02 97 1011.7
20260902021503 49 280 2.0 9.0 0.00 0.14 0.02 96 1011.7
20260902020024 49 279 2.0 9.0 0.00 0.14 0.02 96 1011.7
20260902014505 49 276 2.0 9.0 0.00 0.14 0.02 96 1011.6
20260902013005 49 271 2.0 9.0 0.00 0.14 0.02 96 1011.5
20260902011505 49 265 2.0 11.0 0.00 0.14 0.02 96 1011.4
20260902010005 49 256 4.0 11.0 0.01 0.14 0.02 96 1011.2
20260902004505 50 259 3.0 8.0 0.01 0.14 0.02 95 1011.2
20260902003005 50 261 4.0 11.0 0.02 0.14 0.02 95 1011.3
20260902001505 50 267 4.0 12.0 0.02 0.14 0.02 94 1011.2
20260902000005 51 277 4.0 11.0 0.01 0.13 0.01 93 1011.1
20260901234505 52 290 7.0 20.0 0.01 0.13 0.01 89 1011.1
20260901233005 52 284 11.0 20.0 0.00 0.12 0.00 85 1011.0
20260901231505 52 272 5.0 21.0 0.00 0.12 0.00 83 1010.9
20260901230027 52 264 5.0 16.0 0.00 0.12 0.00 83 1010.7
20260901224526 52 252 7.0 16.0 0.00 0.12 0.12 83 1010.6
20260901223006 52 244 9.0 15.0 0.00 0.12 0.12 83 1010.4
20260901221505 52 244 11.0 19.0 0.00 0.12 0.12 82 1010.2
20260901220005 52 242 11.0 19.0 0.00 0.12 0.12 82 1010.0
20260901214505 52 237 9.0 15.0 0.00 0.12 0.12 82 1010.0
20260901213005 52 235 9.0 18.0 0.00 0.12 0.12 82 1010.0
20260901211526 52 238 10.0 18.0 0.00 0.12 0.12 81 1010.0
20260901210005 52 236 10.0 18.0 0.00 0.12 0.12 80 1009.9
20260901204505 53 238 10.0 20.0 0.00 0.12 0.12 80 1009.8
20260901203005 53 235 7.0 13.0 0.00 0.12 0.12 80 1009.9
20260901201526 53 235 6.0 12.0 0.00 0.12 0.12 79 1009.9
20260901200005 53 232 6.0 14.0 0.00 0.12 0.12 79 1009.9
20260901194526 53 242 6.0 12.0 0.00 0.12 0.12 78 1009.8
20260901193005 53 252 7.0 15.0 0.00 0.12 0.12 79 1009.5
20260901191505 53 254 4.0 11.0 0.00 0.12 0.12 77 1009.3
20260901190026 54 252 4.0 10.0 0.00 0.12 0.12 77 1009.2
20260901184526 54 260 3.0 10.0 0.00 0.12 0.12 75 1009.0
20260901183005 55 260 4.0 12.0 0.00 0.12 0.12 76 1008.9
20260901181505 57 272 2.0 9.0 0.00 0.12 0.12 73 1008.8
20260901180005 58 273 3.0 13.0 0.00 0.12 0.12 72 1008.8
20260901174505 59 282 3.0 10.0 0.00 0.12 0.12 72 1008.7
20260901173005 58 285 6.0 13.0 0.00 0.12 0.12 73 1008.7
20260901171505 58 284 5.0 20.0 0.00 0.12 0.12 70 1008.6
20260901170005 58 283 7.0 22.0 0.00 0.12 0.12 71 1008.6
20260901164505 59 288 4.0 19.0 0.00 0.12 0.12 72 1008.4
20260901163005 61 296 10.0 19.0 0.00 0.13 0.12 71 1008.3
20260901161505 61 291 11.0 22.0 0.00 0.13 0.12 72 1008.0
20260901160005 61 279 8.0 26.0 0.00 0.13 0.12 70 1007.8
20260901154505 61 284 6.0 16.0 0.00 0.13 0.12 71 1007.8
20260901153004 61 288 6.0 18.0 0.00 0.13 0.12 72 1007.6
20260901151504 61 287 12.0 25.0 0.00 0.13 0.12 73 1007.5
20260901150004 60 284 10.0 24.0 0.00 0.13 0.12 75 1007.4
20260901144505 61 290 9.0 26.0 0.00 0.13 0.12 83 1007.2
20260901143004 59 293 11.0 21.0 0.00 0.13 0.12 87 1007.3
20260901141505 59 303 8.0 16.0 0.00 0.13 0.12 87 1007.2
20260901140005 59 302 14.0 24.0 0.00 0.13 0.12 88 1007.2
20260901134505 59 296 13.0 26.0 0.00 0.13 0.12 91 1007.0
20260901133005 58 295 13.0 23.0 0.00 0.13 0.12 93 1007.0
20260901131526 57 294 13.0 24.0 0.00 0.13 0.12 92 1007.0